FW3713 Weather Reports


Display with metric or nautical units.
time (UTC)temp
F
wind
direction
speed
MPH
gust
MPH
rain 1hr
in
rain 24hr
in
rain mn
in
humidity
%
barometer
mb
20210919055727 76 145 0.0 3.0 0.00 0.00 0.00 40 1032.9
20210919055223 77 145 1.0 3.0 0.00 0.00 0.00 41 1032.9
20210919054716 77 145 2.0 5.0 0.00 0.00 0.00 41 1033.0
20210919054210 77 139 2.0 5.0 0.00 0.00 0.00 40 1033.2
20210919053705 77 149 1.0 5.0 0.00 0.00 0.00 42 1032.9
20210919053159 78 158 0.0 4.0 0.00 0.00 0.00 42 1032.8
20210919052651 78 189 0.0 1.0 0.00 0.00 0.00 39 1033.0
20210919052146 78 189 0.0 1.0 0.00 0.00 0.00 38 1033.4
20210919051641 78 189 0.0 1.0 0.00 0.00 0.00 38 1033.4
20210919051134 78 189 0.0 2.0 0.00 0.00 0.00 37 1033.3
20210919050630 78 189 1.0 5.0 0.00 0.00 0.00 36 1033.2
20210919050123 78 189 1.0 5.0 0.00 0.00 0.00 35 1033.2
20210919045616 78 135 0.0 1.0 0.00 0.00 0.00 36 1033.0
20210919045109 78 135 1.0 2.0 0.00 0.00 0.00 36 1033.2
20210919044604 78 135 1.0 2.0 0.00 0.00 0.00 36 1033.3
20210919044057 78 135 1.0 2.0 0.00 0.00 0.00 36 1033.2
20210919043552 78 135 1.0 3.0 0.00 0.00 0.00 35 1033.2
20210919043047 78 136 1.0 3.0 0.00 0.00 0.00 35 1033.2
20210919042540 78 71 1.0 3.0 0.00 0.00 0.00 35 1033.0
20210919042035 78 13 1.0 3.0 0.00 0.00 0.00 36 1032.9
20210919041529 79 331 0.0 2.0 0.00 0.00 0.00 36 1032.9
20210919041022 79 326 0.0 1.0 0.00 0.00 0.00 38 1033.0
20210919040516 79 324 0.0 0.0 0.00 0.00 0.00 34 1033.2
20210919040012 79 324 0.0 0.0 0.00 0.00 0.00 33 1033.2
20210919035505 79 324 0.0 1.0 0.00 0.00 0.00 33 1033.2
20210919034957 79 321 0.0 1.0 0.00 0.00 0.00 33 1033.2
20210919034453 79 321 0.0 1.0 0.00 0.00 0.00 33 1033.3
20210919033947 80 321 0.0 1.0 0.00 0.00 0.00 33 1033.2
20210919033440 80 320 0.0 1.0 0.00 0.00 0.00 33 1033.3
20210919032935 80 320 0.0 1.0 0.00 0.00 0.00 33 1033.2
20210919032427 80 320 0.0 0.0 0.00 0.00 0.00 33 1033.2
20210919031923 80 319 0.0 1.0 0.00 0.00 0.00 33 1033.3
20210919031417 80 319 0.0 1.0 0.00 0.00 0.00 32 1033.3
20210919030910 80 319 0.0 1.0 0.00 0.00 0.00 32 1033.2
20210919030404 81 319 0.0 1.0 0.00 0.00 0.00 32 1033.2
20210919025902 81 319 0.0 1.0 0.00 0.00 0.00 32 1033.0
20210919025353 81 319 1.0 3.0 0.00 0.00 0.00 32 1032.9
20210919024847 81 313 1.0 3.0 0.00 0.00 0.00 31 1032.7
20210919024341 81 310 0.0 2.0 0.00 0.00 0.00 31 1032.7
20210919023837 81 306 0.0 2.0 0.00 0.00 0.00 31 1032.8
20210919023338 81 306 0.0 2.0 0.00 0.00 0.00 31 1032.7
20210919022837 81 306 1.0 3.0 0.00 0.00 0.00 31 1032.6
20210919022340 81 301 1.0 3.0 0.00 0.00 0.00 31 1032.6
20210919021834 81 297 1.0 3.0 0.00 0.00 0.00 31 1032.6
20210919021335 82 295 1.0 3.0 0.00 0.00 0.00 31 1032.6
20210919020833 82 293 1.0 3.0 0.00 0.00 0.00 30 1032.5
20210919020335 82 293 1.0 3.0 0.00 0.00 0.00 30 1032.5
20210919015833 82 287 1.0 5.0 0.00 0.00 0.00 30 1032.3
20210919015337 82 275 1.0 6.0 0.00 0.00 0.00 30 1032.2
20210919014833 82 290 2.0 6.0 0.00 0.00 0.00 30 1032.2
20210919014335 82 275 2.0 6.0 0.00 0.00 0.00 30 1032.2
20210919013833 83 243 3.0 6.0 0.00 0.00 0.00 30 1032.1
20210919013334 83 279 3.0 6.0 0.00 0.00 0.00 30 1032.1
20210919012835 83 286 3.0 6.0 0.00 0.00 0.00 29 1032.1
20210919012335 83 291 4.0 8.0 0.00 0.00 0.00 29 1032.0
20210919011833 84 300 5.0 8.0 0.00 0.00 0.00 28 1032.0
20210919011335 84 268 5.0 10.0 0.00 0.00 0.00 28 1032.0
20210919010834 85 269 4.0 10.0 0.00 0.00 0.00 26 1031.8
20210919010334 85 277 1.0 6.0 0.00 0.00 0.00 23 1031.8
20210919005833 85 301 1.0 6.0 0.00 0.00 0.00 23 1031.6
20210919005335 85 306 3.0 7.0 0.00 0.00 0.00 23 1031.6
20210919004835 86 284 2.0 7.0 0.00 0.00 0.00 24 1031.8
20210919004333 86 306 0.0 4.0 0.00 0.00 0.00 24 1031.8
20210919003833 86 102 1.0 4.0 0.00 0.00 0.00 23 1031.6
20210919003334 86 166 1.0 7.0 0.00 0.00 0.00 23 1031.5
20210919002831 86 251 1.0 7.0 0.00 0.00 0.00 22 1031.5
20210919002330 87 194 1.0 6.0 0.00 0.00 0.00 22 1031.5
20210919001831 87 200 2.0 8.0 0.00 0.00 0.00 22 1031.5
20210919001333 87 212 3.0 8.0 0.00 0.00 0.00 22 1031.5
20210919000825 87 231 2.0 8.0 0.00 0.00 0.00 22 1031.5
20210919000317 87 193 2.0 5.0 0.00 0.00 0.00 22 1031.5
20210918235811 88 179 2.0 7.0 0.00 0.00 0.00 22 1031.5
20210918235306 88 189 3.0 7.0 0.00 0.00 0.00 22 1031.5
20210918234804 88 192 2.0 6.0 0.00 0.00 0.00 21 1031.5
20210918234303 89 136 1.0 4.0 0.00 0.00 0.00 22 1031.5
20210918233803 89 129 1.0 3.0 0.00 0.00 0.00 21 1031.6
20210918233301 89 256 1.0 3.0 0.00 0.00 0.00 21 1031.8
20210918232801 89 118 2.0 5.0 0.00 0.00 0.00 20 1031.8
20210918232301 89 226 1.0 5.0 0.00 0.00 0.00 21 1031.8
20210918231759 89 108 2.0 9.0 0.00 0.00 0.00 20 1031.9
20210918231259 89 139 3.0 9.0 0.00 0.00 0.00 21 1031.9
20210918230800 89 133 3.0 8.0 0.00 0.00 0.00 20 1031.9
20210918230259 89 137 3.0 7.0 0.00 0.00 0.00 20 1032.0
20210918225800 89 132 3.0 10.0 0.00 0.00 0.00 20 1032.1
20210918225300 89 183 3.0 10.0 0.00 0.00 0.00 19 1032.1
20210918224758 89 226 3.0 9.0 0.00 0.00 0.00 20 1032.1
20210918224259 89 135 2.0 8.0 0.00 0.00 0.00 19 1032.2
20210918223757 90 89 2.0 9.0 0.00 0.00 0.00 19 1032.2
20210918223257 90 224 2.0 9.0 0.00 0.00 0.00 18 1032.2
20210918222756 90 133 2.0 7.0 0.00 0.00 0.00 19 1032.3
20210918222254 90 148 3.0 8.0 0.00 0.00 0.00 19 1032.3
20210918221746 90 214 3.0 10.0 0.00 0.00 0.00 19 1032.5
20210918221241 90 187 3.0 8.0 0.00 0.00 0.00 19 1032.5
20210918220734 91 204 2.0 7.0 0.00 0.00 0.00 18 1032.5
20210918220229 91 171 2.0 6.0 0.00 0.00 0.00 19 1032.5
20210918215723 91 177 2.0 6.0 0.00 0.00 0.00 19 1032.5
20210918215216 91 115 2.0 4.0 0.00 0.00 0.00 18 1032.7
20210918214710 91 181 1.0 5.0 0.00 0.00 0.00 20 1032.7
20210918214203 91 148 1.0 4.0 0.00 0.00 0.00 19 1032.9
20210918213656 91 54 1.0 5.0 0.00 0.00 0.00 18 1032.9
20210918213150 92 179 2.0 5.0 0.00 0.00 0.00 19 1033.0
20210918212644 92 161 2.0 8.0 0.00 0.00 0.00 19 1033.0
20210918212140 92 197 3.0 8.0 0.00 0.00 0.00 18 1033.2
20210918211634 93 274 2.0 7.0 0.00 0.00 0.00 18 1033.2
20210918211128 94 72 3.0 7.0 0.00 0.00 0.00 18 1033.3
20210918210621 95 179 2.0 7.0 0.00 0.00 0.00 18 1033.5
20210918210116 95 203 2.0 7.0 0.00 0.00 0.00 17 1033.5
20210918205610 96 152 3.0 7.0 0.00 0.00 0.00 17 1033.6
20210918205104 96 108 2.0 6.0 0.00 0.00 0.00 17 1033.6
20210918204557 96 187 2.0 7.0 0.00 0.00 0.00 17 1033.7
20210918204052 96 144 2.0 7.0 0.00 0.00 0.00 17 1033.7
20210918203545 96 219 2.0 6.0 0.00 0.00 0.00 18 1033.9
20210918203040 95 196 1.0 6.0 0.00 0.00 0.00 18 1034.0
20210918202533 95 212 2.0 5.0 0.00 0.00 0.00 19 1034.1
20210918202028 95 265 2.0 5.0 0.00 0.00 0.00 19 1034.2
20210918201522 96 266 2.0 4.0 0.00 0.00 0.00 19 1034.4
20210918201016 96 272 2.0 4.0 0.00 0.00 0.00 19 1034.6
20210918200508 96 124 2.0 5.0 0.00 0.00 0.00 19 1034.7
20210918200004 96 215 2.0 6.0 0.00 0.00 0.00 20 1034.9
20210918195458 95 124 2.0 6.0 0.00 0.00 0.00 20 1035.0
20210918194951 94 195 2.0 7.0 0.00 0.00 0.00 21 1035.1
20210918194447 94 154 3.0 7.0 0.00 0.00 0.00 21 1035.1
20210918193939 94 151 2.0 6.0 0.00 0.00 0.00 22 1035.3
20210918193433 94 275 1.0 3.0 0.00 0.00 0.00 22 1035.5
20210918192928 93 31 2.0 3.0 0.00 0.00 0.00 21 1035.5
20210918192422 94 274 2.0 5.0 0.00 0.00 0.00 22 1035.6
20210918191917 93 217 1.0 3.0 0.00 0.00 0.00 22 1035.7
20210918191411 93 129 1.0 5.0 0.00 0.00 0.00 22 1035.8
20210918190904 92 174 1.0 5.0 0.00 0.00 0.00 23 1036.0
20210918190357 92 322 1.0 4.0 0.00 0.00 0.00 23 1036.1
20210918185854 92 279 1.0 4.0 0.00 0.00 0.00 23 1036.1
20210918185358 91 285 1.0 5.0 0.00 0.00 0.00 24 1036.2
20210918184853 90 164 1.0 5.0 0.00 0.00 0.00 25 1036.3
20210918184354 90 293 1.0 4.0 0.00 0.00 0.00 25 1036.4
20210918183853 89 42 2.0 5.0 0.00 0.00 0.00 26 1036.4
20210918183355 88 141 2.0 5.0 0.00 0.00 0.00 24 1036.5
20210918182852 89 141 2.0 4.0 0.00 0.00 0.00 25 1036.5
20210918182353 90 268 1.0 4.0 0.00 0.00 0.00 24 1036.5
20210918181853 91 267 1.0 4.0 0.00 0.00 0.00 25 1036.8
20210918181350 90 177 1.0 4.0 0.00 0.00 0.00 25 1036.8
20210918180850 89 197 1.0 4.0 0.00 0.00 0.00 27 1036.9
20210918180351 88 160 1.0 4.0 0.00 0.00 0.00 26 1036.9
20210918175848 88 293 1.0 3.0 0.00 0.00 0.00 27 1036.9
20210918175349 87 337 1.0 3.0 0.00 0.00 0.00 29 1037.0
20210918174850 86 334 1.0 2.0 0.00 0.00 0.00 29 1037.2
20210918174350 85 284 1.0 4.0 0.00 0.00 0.00 31 1037.2
20210918173850 84 284 2.0 4.0 0.00 0.00 0.00 30 1037.3
20210918173346 84 327 1.0 4.0 0.00 0.00 0.00 30 1037.5
20210918172848 84 324 1.0 4.0 0.00 0.00 0.00 31 1037.5
20210918172346 83 324 1.0 5.0 0.00 0.00 0.00 32 1037.5
20210918171846 82 71 1.0 5.0 0.00 0.00 0.00 32 1037.6
20210918171346 82 320 2.0 4.0 0.00 0.00 0.00 35 1037.6
20210918170849 81 321 2.0 4.0 0.00 0.00 0.00 35 1037.7
20210918170346 81 287 1.0 4.0 0.00 0.00 0.00 36 1037.8
20210918165851 80 318 1.0 3.0 0.00 0.00 0.00 36 1037.9
20210918165349 80 93 1.0 3.0 0.00 0.00 0.00 36 1038.2
20210918164848 79 98 1.0 3.0 0.00 0.00 0.00 37 1038.3
20210918164346 78 168 1.0 3.0 0.00 0.00 0.00 39 1038.3
20210918163846 77 0 1.0 5.0 0.00 0.00 0.00 39 1038.4
20210918163348 77 324 1.0 5.0 0.00 0.00 0.00 40 1038.4
20210918162847 76 0 2.0 4.0 0.00 0.00 0.00 41 1038.4
20210918162348 76 350 2.0 4.0 0.00 0.00 0.00 42 1038.4
20210918161849 75 338 2.0 4.0 0.00 0.00 0.00 44 1038.3
20210918161346 74 337 2.0 4.0 0.00 0.00 0.00 45 1038.4
20210918160842 74 333 2.0 4.0 0.00 0.00 0.00 46 1038.4
20210918160341 73 337 1.0 4.0 0.00 0.00 0.00 46 1038.5
20210918155841 72 0 2.0 4.0 0.00 0.00 0.00 47 1038.4
20210918155340 71 350 2.0 4.0 0.00 0.00 0.00 48 1038.5
20210918154839 71 14 2.0 4.0 0.00 0.00 0.00 49 1038.5
20210918154339 70 308 2.0 5.0 0.00 0.00 0.00 51 1038.5
20210918153839 70 9 2.0 5.0 0.00 0.00 0.00 51 1038.5
20210918153340 69 325 2.0 5.0 0.00 0.00 0.00 52 1038.4
20210918152838 69 335 2.0 4.0 0.00 0.00 0.00 53 1038.5
20210918152338 68 350 2.0 4.0 0.00 0.00 0.00 54 1038.5
20210918151834 68 331 2.0 4.0 0.00 0.00 0.00 54 1038.4
20210918151333 67 320 2.0 4.0 0.00 0.00 0.00 55 1038.5
20210918150832 67 331 1.0 3.0 0.00 0.00 0.00 55 1038.5
20210918150332 66 331 1.0 3.0 0.00 0.00 0.00 56 1038.5
20210918145833 66 333 2.0 5.0 0.00 0.00 0.00 57 1038.5
20210918145332 66 322 3.0 5.0 0.00 0.00 0.00 57 1038.5
20210918144832 65 332 2.0 4.0 0.00 0.00 0.00 58 1038.4
20210918144330 65 337 2.0 5.0 0.00 0.00 0.00 59 1038.4
20210918143825 64 330 3.0 5.0 0.00 0.00 0.00 59 1038.4
20210918143319 64 335 3.0 5.0 0.00 0.00 0.00 59 1038.4
20210918142813 64 10 3.0 6.0 0.00 0.00 0.00 60 1038.3
20210918142307 64 330 3.0 6.0 0.00 0.00 0.00 60 1038.3
20210918141801 63 355 3.0 6.0 0.00 0.00 0.00 60 1038.3
20210918141255 63 341 2.0 6.0 0.00 0.00 0.00 61 1038.3
20210918140750 62 316 2.0 5.0 0.00 0.00 0.00 61 1038.2
20210918140243 62 10 2.0 5.0 0.00 0.00 0.00 62 1038.3
20210918135737 61 310 2.0 4.0 0.00 0.00 0.00 61 1038.3
20210918135230 61 308 2.0 4.0 0.00 0.00 0.00 60 1038.2
20210918134725 61 301 1.0 3.0 0.00 0.00 0.00 59 1038.0
20210918134221 61 301 1.0 4.0 0.00 0.00 0.00 59 1037.9
20210918133713 61 301 2.0 4.0 0.00 0.00 0.00 59 1037.9
20210918133207 61 301 2.0 3.0 0.00 0.00 0.00 59 1037.8
20210918132659 61 301 1.0 3.0 0.00 0.00 0.00 59 1037.7
20210918132156 61 295 0.0 2.0 0.00 0.00 0.00 60 1037.6
20210918131649 61 295 0.0 2.0 0.00 0.00 0.00 61 1037.5
20210918131143 61 295 0.0 2.0 0.00 0.00 0.00 60 1037.3
20210918130637 61 295 0.0 3.0 0.00 0.00 0.00 61 1037.3
20210918130131 61 295 1.0 3.0 0.00 0.00 0.00 61 1037.2
20210918125626 61 295 1.0 3.0 0.00 0.00 0.00 61 1037.3
20210918125118 62 295 0.0 2.0 0.00 0.00 0.00 61 1037.3
20210918124612 62 295 0.0 2.0 0.00 0.00 0.00 60 1037.2
20210918124107 62 295 0.0 0.0 0.00 0.00 0.00 59 1037.2
20210918123601 62 295 0.0 1.0 0.00 0.00 0.00 59 1037.1
20210918123055 62 295 1.0 3.0 0.00 0.00 0.00 60 1037.1
20210918122551 62 295 1.0 3.0 0.00 0.00 0.00 60 1037.0
20210918122043 62 295 1.0 2.0 0.00 0.00 0.00 59 1036.9
20210918121537 62 295 1.0 3.0 0.00 0.00 0.00 59 1036.9
20210918121029 62 295 1.0 3.0 0.00 0.00 0.00 59 1036.9
20210918120526 62 295 1.0 2.0 0.00 0.00 0.00 59 1036.9
20210918120019 62 295 0.0 2.0 0.00 0.00 0.00 59 1036.8
20210918115513 62 295 0.0 2.0 0.00 0.00 0.00 59 1036.9
20210918115007 62 295 1.0 2.0 0.00 0.00 0.00 59 1036.9
20210918114500 62 295 1.0 2.0 0.00 0.00 0.00 59 1036.8
20210918113954 62 295 0.0 2.0 0.00 0.00 0.00 58 1036.9
20210918113448 62 295 1.0 2.0 0.00 0.00 0.00 58 1036.8
20210918112943 62 295 1.0 2.0 0.00 0.00 0.00 58 1036.8
20210918112440 62 295 0.0 1.0 0.00 0.00 0.00 56 1036.8
20210918111933 63 295 0.0 1.0 0.00 0.00 0.00 56 1036.8
20210918111425 63 295 0.0 1.0 0.00 0.00 0.00 56 1036.8
20210918110920 63 295 0.0 1.0 0.00 0.00 0.00 55 1036.7
20210918110413 63 295 0.0 1.0 0.00 0.00 0.00 55 1036.8
20210918105907 63 295 0.0 1.0 0.00 0.00 0.00 55 1036.8
20210918105401 64 295 0.0 1.0 0.00 0.00 0.00 55 1036.8
20210918104856 64 295 1.0 3.0 0.00 0.00 0.00 54 1036.8
20210918104350 64 295 1.0 3.0 0.00 0.00 0.00 54 1036.8
20210918103843 64 295 0.0 2.0 0.00 0.00 0.00 54 1036.8
20210918103337 64 295 1.0 2.0 0.00 0.00 0.00 53 1036.5
20210918102831 64 295 1.0 2.0 0.00 0.00 0.00 53 1036.7
20210918102325 64 295 1.0 2.0 0.00 0.00 0.00 53 1036.7
20210918101819 64 295 0.0 1.0 0.00 0.00 0.00 52 1036.7
20210918101314 64 295 1.0 3.0 0.00 0.00 0.00 52 1036.5
20210918100807 65 295 1.0 3.0 0.00 0.00 0.00 51 1036.5
20210918100301 65 295 0.0 2.0 0.00 0.00 0.00 51 1036.7
20210918095755 65 295 0.0 2.0 0.00 0.00 0.00 50 1036.5
20210918095249 65 295 0.0 2.0 0.00 0.00 0.00 50 1036.5
20210918094743 65 295 0.0 2.0 0.00 0.00 0.00 49 1036.7
20210918094237 65 295 0.0 2.0 0.00 0.00 0.00 49 1036.7
20210918093731 65 295 0.0 2.0 0.00 0.00 0.00 49 1036.7
20210918093227 65 295 1.0 4.0 0.00 0.00 0.00 49 1036.7
20210918092729 66 294 2.0 4.0 0.00 0.00 0.00 49 1036.5
20210918092225 66 294 1.0 3.0 0.00 0.00 0.00 49 1036.5
20210918091728 66 294 1.0 2.0 0.00 0.00 0.00 49 1036.4
20210918091226 66 294 0.0 1.0 0.00 0.00 0.00 48 1036.5
20210918090724 66 294 1.0 4.0 0.00 0.00 0.00 48 1036.5
20210918090222 67 294 1.0 4.0 0.00 0.00 0.00 47 1036.5
20210918085723 67 295 1.0 3.0 0.00 0.00 0.00 47 1036.7
20210918085221 67 355 0.0 1.0 0.00 0.00 0.00 46 1036.7
20210918084722 68 355 0.0 0.0 0.00 0.00 0.00 45 1036.7
20210918084222 68 355 0.0 0.0 0.00 0.00 0.00 44 1036.5
20210918083724 69 355 0.0 0.0 0.00 0.00 0.00 44 1036.5
20210918083218 69 355 0.0 0.0 0.00 0.00 0.00 43 1036.5
20210918082719 69 355 0.0 1.0 0.00 0.00 0.00 43 1036.5
20210918082220 69 355 0.0 1.0 0.00 0.00 0.00 43 1036.5
20210918081717 70 355 0.0 1.0 0.00 0.00 0.00 42 1036.5
20210918081219 70 355 1.0 3.0 0.00 0.00 0.00 42 1036.4
20210918080717 70 355 1.0 3.0 0.00 0.00 0.00 42 1036.4
20210918080218 70 0 1.0 3.0 0.00 0.00 0.00 41 1036.3
20210918075717 71 4 2.0 4.0 0.00 0.00 0.00 41 1036.3
20210918075219 71 328 2.0 4.0 0.00 0.00 0.00 40 1036.3
20210918074713 71 326 1.0 4.0 0.00 0.00 0.00 40 1036.3
20210918074214 71 355 1.0 3.0 0.00 0.00 0.00 39 1036.3
20210918073713 72 355 1.0 3.0 0.00 0.00 0.00 39 1036.2
20210918073213 72 350 1.0 5.0 0.00 0.00 0.00 39 1036.2
20210918072713 72 28 2.0 5.0 0.00 0.00 0.00 39 1036.2
20210918072213 72 14 2.0 5.0 0.00 0.00 0.00 39 1036.2
20210918071713 73 39 2.0 6.0 0.00 0.00 0.00 38 1036.2
20210918071215 73 56 3.0 8.0 0.00 0.00 0.00 38 1036.2
20210918070715 73 140 5.0 12.0 0.00 0.00 0.00 38 1036.2
20210918070213 73 58 6.0 12.0 0.00 0.00 0.00 37 1036.2
20210918065711 73 62 6.0 11.0 0.00 0.00 0.00 37 1036.1
20210918065204 74 56 5.0 13.0 0.00 0.00 0.00 37 1036.1
20210918064658 74 77 5.0 13.0 0.00 0.00 0.00 36 1036.1
20210918064152 74 73 5.0 11.0 0.00 0.00 0.00 35 1036.1
20210918063646 74 57 4.0 10.0 0.00 0.00 0.00 33 1036.0
20210918063412 74 73 3.0 10.0 0.00 0.00 0.00 33 1036.0
20210918062637 74 73 3.0 10.0 0.00 0.00 0.00 34 1036.0
20210918062129 74 65 4.0 10.0 0.00 0.00 0.00 35 1035.8
20210918061623 74 87 4.0 10.0 0.00 0.00 0.00 38 1036.0
20210918061116 74 197 4.0 10.0 0.00 0.00 0.00 38 1036.1
20210918060610 74 66 3.0 10.0 0.00 0.00 0.00 38 1036.0
20210918060105 74 166 4.0 10.0 0.00 0.00 0.00 38 1035.7